User: anonymous   Login
Location: Oshawa
(43.9000°N, 78.8670°W)
Time: 02:50:43
(UTC-04:00)
Language:

S-56A Canister/Altair - Orbit

View from above orbital plane
View from above orbital plane
View from above satellite
View from above satellite

Ground track
Ground track

The orbit data is extracted from the following two-line orbital elements,

1    82U 61004B   17229.88735430 +.00000088 +00000-0 +11717-3 0  9996
2    82 038.8543 068.7547 1170790 131.1767 239.6007 12.25857817680839
Epoch (UTC): 17 August 2017 21:17:47
Eccentricity: 0.1170790
inclination: 38.8543°
perigee height: 637 km
apogee height: 2497 km
right ascension of ascending node: 68.7547°
argument of perigee: 131.1767°
revolutions per day: 12.25857817
mean anomaly at epoch: 239.6007°
orbit number at epoch: 68083

The dashed part of the orbit path shows where the satellite is in the earth's shadow,  

DLR